[[{"header":{"parameterUnit":"m.s-1","parameterCategory":1,"la1":30.2991,"la2":30.254,"lo1":-89.0895,"lo2":-89.0444,"dy":0.0017,"dx":0.0017,"nx":28,"ny":28,"refTime":"2025-06-14T21:00:00:Z","depth":0,"parameterNumber":2,"parameterNumberName":"U-component_of_WINDS"},"data":[0,0,0,0,0,0,0,0,0,0,0,0,0,0,0,0,0,0,0,0,0,0,0,0,0,0,0,0,0,0,0,0,0,0,0,0,0,0,0,0,0,0,0,0,0,0,0,0,0,0,0,0,0,0,0,0,0,0,2.9195,2.9198,0,2.9485,2.9489,2.9492,2.9574,2.9573,2.9571,2.9569,2.988,2.989,2.9899,0,0,0,0,0,0,0,0,0,0,0,0,0,2.8724,2.8732,2.9195,2.9199,2.9202,2.9485,2.9489,2.9493,2.9575,2.9573,2.9571,2.9569,2.9877,2.9888,2.99,0,0,0,0,0,0,0,0,0,0,0,0,0,2.8963,2.8734,2.9195,2.9277,2.9287,2.9484,2.9489,2.9494,2.9575,2.9572,2.957,2.9568,2.9873,2.9887,2.9902,3.0042,0,0,2.9947,2.9953,0,0,0,0,0,0,0,0,2.8949,2.898,2.9261,2.9271,2.9283,2.9491,2.9437,2.9678,2.9576,2.9466,2.9569,2.9566,2.9754,2.9778,2.9838,3.0057,3.007,2.9948,2.9957,2.9963,2.9968,0,0,0,0,0,0,0,2.8932,2.8968,2.9311,2.9265,2.9279,2.9303,2.9334,2.9483,2.9621,2.9475,2.9482,2.9515,2.9759,2.9824,2.9846,3.0075,2.9948,2.9961,2.997,2.9976,3.0422,3.0425,0,0,0,0,0,0,2.89,2.8954,2.9301,2.9319,2.9106,2.9314,2.9349,2.9427,2.9619,2.9646,2.9516,2.9517,2.98,2.9829,2.9857,3.0033,2.9963,2.9977,2.9985,3.0419,3.0423,3.0426,0,0,0,0,0,0,2.889,2.893,2.929,2.9138,2.9186,2.9324,2.9412,2.9434,2.9498,2.965,2.9676,2.9556,2.9799,2.9837,2.9994,3.0045,2.9984,2.9997,3.0416,3.0421,3.0425,3.0385,0,0,0,0,0,0,2.8876,2.8926,2.8978,2.9139,2.9193,2.9418,2.9415,2.9441,2.9522,2.9526,2.9694,2.972,2.98,2.9972,3.0009,3.0064,3.0009,3.0412,3.0418,3.0423,3.0382,3.0388,3.0392,0,0,0,0,0,2.8858,2.8958,2.898,2.9021,2.926,2.942,2.9452,2.9539,2.9526,2.9581,2.9678,2.9714,3.0033,2.9987,3.003,3.009,3.0409,3.0416,3.0423,3.038,3.0387,3.0392,0,0,0,0,0,0,2.8805,2.8981,2.9007,2.9161,2.9274,2.9434,2.9506,2.9543,2.9666,2.9665,2.9772,2.9809,2.9959,3.0041,2.9987,3.0236,3.0223,3.0238,3.0176,3.0183,3.0188,3.0164,3.0021,0,0,0,0,0,2.881,2.8921,2.9071,2.9193,2.9248,2.9366,2.944,2.9496,2.962,2.9669,2.9778,2.9901,3.0029,3.0111,3.0237,3.0395,3.0434,3.0458,3.0463,3.0466,3.0478,3.0567,3.0579,3.0449,3.0449,3.0449,0,0,2.8824,2.8934,2.8998,2.9184,2.9279,2.9394,2.9407,2.9529,2.9617,2.969,2.9843,2.9928,3.0072,3.0229,3.0305,3.0303,3.0522,3.0475,3.0476,3.0487,3.0575,3.0587,3.0598,3.0453,3.0453,3.0452,0,0,2.8906,2.9001,2.9111,2.9204,2.9346,2.9424,2.945,2.9604,2.9661,2.9816,2.9872,2.9981,3.0199,3.0299,3.0378,3.0497,3.0536,3.0536,3.0561,3.0647,3.0657,3.0666,3.0708,3.0722,3.0548,3.0548,3.0548,0,2.8906,2.9079,2.9165,2.9283,2.9363,2.943,2.9544,2.9633,2.981,2.9866,2.986,3.0133,3.0235,3.0416,3.0444,3.0507,3.0542,3.0517,3.0647,3.0658,3.0669,3.0709,3.0725,3.0547,3.0547,3.0547,3.0547,0,2.9071,2.919,2.9263,2.9426,2.9516,2.9632,2.9738,2.982,2.9868,2.9948,3.0106,3.023,3.0381,3.0429,3.0481,3.0618,3.0612,3.0626,3.0615,3.0678,3.0718,3.0735,3.0545,3.0546,3.0546,3.0546,0,0,2.9129,2.9335,2.9361,2.9435,2.9595,2.9691,2.9811,2.9954,3.0021,3.0142,3.0246,3.0428,3.0441,3.0531,3.0594,3.0669,3.0754,3.0674,3.0679,3.0683,3.0913,3.09,3.0917,3.0781,3.0784,3.0787,3.0901,0,2.923,2.9441,2.9521,2.9696,2.9807,2.9871,2.9976,3.0088,3.0166,3.0275,3.0364,3.0489,3.0497,3.0552,3.0629,3.0727,3.0802,3.072,3.0881,3.0886,3.084,3.0938,3.0926,3.1027,3.0917,3.092,3.0922,0,2.9377,2.9493,2.9676,2.982,2.987,2.9962,3.0099,3.0202,3.0331,3.0383,3.0481,3.0539,3.0671,3.0651,3.0835,3.0778,3.0849,3.0908,3.0914,3.0931,3.0906,3.0957,3.1061,3.1075,3.0948,3.0946,3.0944,0,2.9398,2.9601,2.9736,2.9798,2.997,3.0033,3.0109,3.0235,3.0315,3.0438,3.0491,3.0629,3.0704,3.0811,3.0906,3.0883,3.1081,3.107,3.1129,3.1126,3.1167,3.1163,3.1282,3.1215,3.1215,3.1214,3.1214,0,2.9502,2.9612,2.9747,2.983,2.9955,3.0048,3.0171,3.0252,3.0363,3.0465,3.0533,3.0628,3.0748,3.086,3.0936,3.1076,3.1111,3.1158,3.1177,3.1151,3.1145,3.1199,3.1193,3.1218,3.1217,3.1217,3.1216,0,2.9547,2.9641,2.9792,2.9942,2.9982,3.0067,3.0198,3.0283,3.0363,3.0492,3.0528,3.0656,3.0791,3.0896,3.1074,3.1125,3.1273,3.1294,3.1227,3.1236,3.1289,3.1282,3.1446,3.1472,3.1388,3.1388,3.1389,0,2.9606,2.969,2.9847,2.9918,2.9991,3.0106,3.0186,3.0283,3.0365,3.0517,3.0584,3.0723,3.0839,3.1053,3.1165,3.1301,3.1326,3.1374,3.1347,3.1318,3.1325,3.1318,3.1327,3.1377,3.1377,3.1377,3.1378,0,2.9701,2.9743,2.9854,2.9982,3.0075,3.0182,3.0291,3.0346,3.0463,3.0553,3.0688,3.0778,3.0957,3.1094,3.1242,3.1325,3.1372,3.1385,3.1406,3.138,3.1337,3.1359,3.1235,3.1381,3.1381,3.138,3.138,3.138,2.9754,2.9831,2.9952,3.0075,3.0165,3.0264,3.035,3.0439,3.0553,3.0702,3.0754,3.0894,3.1022,3.1224,3.1308,3.1422,3.1424,3.1454,3.1462,3.1468,3.1464,3.1319,3.145,3.145,3.145,3.145,3.145,0,2.9851,2.9931,3.0042,3.0189,3.0285,3.0315,3.0437,3.0517,3.0637,3.0751,3.0861,3.1018,3.1152,3.1273,3.1413,3.1481,3.1506,3.1514,3.151,3.1528,3.1455,3.1422,3.1491,3.1491,3.1491,3.1491,3.1491,3.1491,2.9912,3.0044,3.01,3.0278,3.036,3.0493,3.056,3.0653,3.0743,3.0912,3.1021,3.1097,3.1215,3.1364,3.1488,3.1521,3.1569,3.1572,3.161,3.1539,3.1533,3.1528,3.1498,3.1582,3.1582,3.1674,3.1675,3.1675]},{"header":{"parameterUnit":"m.s-1","parameterCategory":1,"la1":30.2991,"la2":30.254,"lo1":-89.0895,"lo2":-89.0444,"dy":0.0017,"dx":0.0017,"nx":28,"ny":28,"refTime":"2025-06-14T21:00:00:Z","depth":0,"parameterNumber":3,"parameterNumberName":"V-component_of_WINDS"},"data":[0,0,0,0,0,0,0,0,0,0,0,0,0,0,0,0,0,0,0,0,0,0,0,0,0,0,0,0,0,0,0,0,0,0,0,0,0,0,0,0,0,0,0,0,0,0,0,0,0,0,0,0,0,0,0,0,0,0,1.7328,1.7328,0,1.7377,1.7377,1.7378,1.7429,1.743,1.743,1.7431,1.7476,1.7477,1.7478,0,0,0,0,0,0,0,0,0,0,0,0,0,1.727,1.7271,1.7328,1.7328,1.7329,1.7377,1.7377,1.7378,1.7429,1.743,1.7431,1.7431,1.7476,1.7477,1.7478,0,0,0,0,0,0,0,0,0,0,0,0,0,1.7305,1.7271,1.7327,1.736,1.7364,1.7376,1.7377,1.7378,1.7429,1.743,1.7431,1.7432,1.7476,1.7477,1.7478,1.7461,0,0,1.748,1.748,0,0,0,0,0,0,0,0,1.7303,1.7307,1.7355,1.7358,1.7362,1.7398,1.7374,1.7406,1.7428,1.7404,1.7431,1.7432,1.7449,1.7452,1.7459,1.7463,1.7465,1.748,1.7481,1.7481,1.7481,0,0,0,0,0,0,0,1.73,1.7305,1.7347,1.7355,1.736,1.737,1.7376,1.738,1.742,1.7406,1.741,1.7415,1.7451,1.7458,1.746,1.7466,1.748,1.7481,1.7481,1.7482,1.7453,1.7452,0,0,0,0,0,0,1.7294,1.7302,1.7345,1.7348,1.7334,1.737,1.7377,1.7385,1.742,1.7426,1.7414,1.7417,1.7456,1.7459,1.7462,1.7442,1.7481,1.7482,1.7482,1.7454,1.7453,1.7451,0,0,0,0,0,0,1.7292,1.7297,1.7343,1.7326,1.7333,1.737,1.7379,1.7386,1.7393,1.7426,1.7433,1.7414,1.7457,1.7461,1.746,1.7444,1.7482,1.7483,1.7456,1.7454,1.7452,1.7403,0,0,0,0,0,0,1.729,1.7296,1.7293,1.7326,1.7334,1.7343,1.7378,1.7386,1.7394,1.7399,1.7428,1.7434,1.7458,1.7459,1.7461,1.7446,1.7483,1.7457,1.7455,1.7453,1.7406,1.74,1.7394,0,0,0,0,0,1.7288,1.7277,1.7292,1.7297,1.733,1.7342,1.7346,1.7376,1.7393,1.7388,1.7408,1.7433,1.7446,1.7458,1.7461,1.7446,1.7458,1.7456,1.7453,1.7409,1.7401,1.7394,0,0,0,0,0,0,1.724,1.7282,1.7299,1.7299,1.7316,1.7351,1.7346,1.7367,1.7379,1.7383,1.7418,1.7424,1.7418,1.7432,1.7445,1.7429,1.7455,1.7453,1.7421,1.7413,1.7407,1.7404,1.7484,0,0,0,0,0,1.7229,1.7237,1.7273,1.7268,1.7276,1.7309,1.7315,1.7336,1.7355,1.7363,1.7384,1.7399,1.7407,1.7411,1.742,1.7408,1.7413,1.7399,1.7393,1.7388,1.7385,1.7376,1.7369,1.7442,1.7442,1.7442,0,0,1.7207,1.7231,1.7234,1.7259,1.7276,1.728,1.7315,1.732,1.7322,1.7363,1.7363,1.7378,1.7398,1.7391,1.7388,1.7402,1.7365,1.7384,1.738,1.738,1.7372,1.7365,1.7359,1.744,1.7441,1.7441,0,0,1.7169,1.7189,1.7187,1.7201,1.7225,1.7246,1.7245,1.7275,1.7287,1.7288,1.7317,1.7319,1.7332,1.7344,1.7351,1.7312,1.7334,1.7314,1.7282,1.7273,1.7267,1.7262,1.7245,1.7239,1.7311,1.7311,1.7311,0,1.7139,1.7149,1.7182,1.7184,1.7192,1.7229,1.7224,1.7236,1.7261,1.7264,1.728,1.7294,1.731,1.7304,1.7294,1.73,1.7297,1.7311,1.7266,1.7261,1.7257,1.7241,1.7235,1.7308,1.7309,1.7309,1.7309,0,1.7109,1.7115,1.7109,1.7132,1.714,1.7138,1.7168,1.7171,1.719,1.7208,1.7205,1.7225,1.7237,1.7237,1.7256,1.7232,1.724,1.726,1.7286,1.7246,1.7232,1.7227,1.7305,1.7306,1.7306,1.7307,0,0,1.7045,1.7083,1.708,1.7089,1.7116,1.712,1.7118,1.713,1.713,1.7145,1.7142,1.7149,1.7167,1.7175,1.7195,1.7187,1.7151,1.7208,1.7208,1.7194,1.7121,1.7105,1.7098,1.7165,1.7164,1.7163,1.7119,0,1.701,1.7011,1.7038,1.703,1.7033,1.7066,1.7063,1.7077,1.7093,1.7097,1.7113,1.7117,1.7142,1.7146,1.714,1.7157,1.7136,1.716,1.7159,1.7159,1.7153,1.7091,1.7075,1.7033,1.7114,1.7113,1.7112,0,1.6971,1.6983,1.6975,1.6998,1.7001,1.6998,1.7009,1.7013,1.7028,1.7039,1.7046,1.7068,1.7064,1.7089,1.7082,1.7097,1.7098,1.7106,1.7105,1.7105,1.7133,1.7088,1.702,1.7013,1.7104,1.7105,1.7106,0,1.6922,1.6936,1.6932,1.6939,1.6966,1.6963,1.6974,1.699,1.6994,1.7002,1.7005,1.7012,1.7016,1.7019,1.7041,1.7058,1.703,1.7058,1.7037,1.7036,1.703,1.7029,1.6959,1.7032,1.7032,1.7032,1.7032,0,1.688,1.6874,1.691,1.6907,1.6899,1.6928,1.6918,1.6932,1.6945,1.6943,1.6972,1.6969,1.6999,1.6998,1.7015,1.7004,1.7006,1.7013,1.7017,1.701,1.7008,1.701,1.7013,1.703,1.7031,1.7031,1.7031,0,1.6825,1.6849,1.6847,1.6872,1.6878,1.687,1.689,1.6887,1.6903,1.69,1.6901,1.6926,1.6926,1.6948,1.6953,1.6964,1.6945,1.6956,1.694,1.6943,1.692,1.6921,1.6848,1.6838,1.6918,1.6917,1.6917,0,1.6797,1.6792,1.6816,1.6817,1.6826,1.6828,1.6832,1.6859,1.6861,1.6875,1.6869,1.6871,1.6875,1.6873,1.689,1.6892,1.6902,1.6876,1.6902,1.6894,1.6899,1.6898,1.6896,1.687,1.6869,1.6868,1.6867,0,1.6743,1.6754,1.6759,1.6766,1.677,1.6777,1.6786,1.6785,1.6813,1.6813,1.6814,1.6817,1.6821,1.6821,1.6826,1.6835,1.6854,1.6859,1.6853,1.6846,1.6836,1.6838,1.6923,1.686,1.6861,1.6862,1.6862,1.6862,1.6699,1.6695,1.671,1.6713,1.6722,1.6728,1.6725,1.674,1.6742,1.6748,1.6762,1.676,1.677,1.6779,1.6784,1.678,1.6793,1.6787,1.6785,1.6782,1.6777,1.6837,1.6782,1.6782,1.6782,1.6782,1.6782,0,1.6644,1.6655,1.6657,1.6668,1.6669,1.6688,1.6698,1.6697,1.6694,1.6703,1.6705,1.6703,1.6703,1.6718,1.6719,1.6713,1.6721,1.6712,1.6712,1.6713,1.6767,1.677,1.6705,1.6705,1.6705,1.6705,1.6705,1.6705,1.6616,1.6609,1.6621,1.6617,1.6627,1.6625,1.6628,1.6632,1.6639,1.6636,1.6636,1.6646,1.6656,1.6657,1.6656,1.6661,1.6658,1.6645,1.6652,1.6702,1.671,1.6717,1.672,1.6645,1.6645,1.6599,1.6598,1.6598]}]]